Weather in Novoye Ustye

Russia / Khabarovsk Krai     59°19′43″N   143°03′23″E
temp.,
°C
wind,
m/s
gust,
m/s
humid.,
%
clouds,
%
prec.,
mm/h
press.,
hPa
HPBL,
m
27 february, sat
sat2701:00−20nne34760 0.0 102430
04:00−22n45780 0.0 102457
07:00−23n45780 0.0 102570
10:00−21n45770 0.0 1026141
13:00−18n34690 0.0 1025279
16:00−18w11800 0.0 102463
19:00−21w11870 0.0 102520
22:00−22n12870 0.0 102420
28 february, sun
sun2801:00−22n22830 0.0 102420
04:00−23nne45840 0.0 102253
07:00−23n338789 0.0 102140
10:00−21nne468295 0.0 1020150
13:00−18n4578100 0.0 1018246
16:00−15n3580100 0.0 1016192
19:00−17nw3379100 0.0 101525
22:00−17nnw2275100 0.0 101434
1 march, mon
mon101:00−18n4677100 0.0 1012108
04:00−18n4677100 0.0 1012126
07:00−19n4576100 0.0 1011107
10:00−17n4571100 0.0 1011182
13:00−15nnw2367100 0.0 1010311
16:00−14nnw2372100 0.0 1009202
19:00−15wnw1181100 0.0 101121
22:00−16nw1281100 0.0 101134
2 march, tue
tue201:00−16n2289100 0.1 101270
04:00−17n2397100 0.3 1012144
07:00−18n3497100 0.4 1014192
10:00−17n4596100 0.8 1014253
13:00−15ene3491100 0.4 1015463
16:00−15ese5692100 0.7 1015548
19:00−17se3496100 0.2 1016187
22:00−18se2297100 0.4 1017124
3 march, wed
wed301:00−19ese1198100 0.2 101790
04:00−20sse2299100 0.4 101776
07:00−20sse23100100 0.2 1016112
10:00−21ese4597100 0.4 1016278
13:00−20ese4593100 0.1 1014440
16:00−21se3391100 0.1 1012350
19:00−23s229898 0.0 101120
22:00−22sw1210099 0.1 1009138